Terminal Aerodrome Forecast
Issued by NWS

Home | Current Version | Previous Version | Text Only | Print | Product List | Glossary On
Versions: 1 2 3 4 5 6 7 8 9 10 11 12 13 14 15 16 17 18 19 20 21 22 23 24 25 26 27 28 29 30 31 32
000
FTAK31 PAFA 240520
TAFABT
TAF
PABT 240520Z 2406/2506 21010G18KT P6SM -RA SCT010 BKN022 OVC035
     FM242000 23012G18KT 6SM -SHRA BR SCT015 OVC025
     FM250200 23008KT P6SM SCT025 BKN050=

USA.gov is the U.S. government's official web portal to all federal, state and local government web resources and services.